Time,TemperatureF,DewpointF,PressureIn,WindDirection,WindDirectionDegrees,WindSpeedMPH,WindSpeedGustMPH,Humidity,HourlyPrecipIn,Conditions,Clouds,dailyrainin,SoftwareType,DateUTC
2013-02-24 00:08:00,15.6,14.0,30.01,West,261,0.0,1.0,91,0.00,,,0.00,weatherlink.com 1.10,2013-02-24 06:08:00,
2013-02-24 00:23:00,15.2,13.0,30.02,West,261,0.0,1.0,91,0.00,,,0.00,weatherlink.com 1.10,2013-02-24 06:23:00,
2013-02-24 00:38:00,14.9,13.0,30.02,West,261,0.0,1.0,92,0.00,,,0.00,weatherlink.com 1.10,2013-02-24 06:38:00,
2013-02-24 00:53:00,14.7,13.0,30.02,West,261,0.0,1.0,92,0.00,,,0.00,weatherlink.com 1.10,2013-02-24 06:53:00,
2013-02-24 01:08:00,14.5,13.0,30.02,West,261,0.0,1.0,92,0.00,,,0.00,weatherlink.com 1.10,2013-02-24 07:08:00,
2013-02-24 01:23:00,14.4,13.0,30.03,West,261,0.0,1.0,92,0.00,,,0.00,weatherlink.com 1.10,2013-02-24 07:23:00,
2013-02-24 01:38:00,14.4,13.0,30.03,West,261,1.0,1.0,92,0.00,,,0.00,weatherlink.com 1.10,2013-02-24 07:38:00,
2013-02-24 01:53:00,14.2,12.0,30.03,West,261,0.0,2.0,92,0.00,,,0.00,weatherlink.com 1.10,2013-02-24 07:53:00,
2013-02-24 02:08:00,14.0,12.0,30.03,WSW,243,1.0,3.0,92,0.00,,,0.00,weatherlink.com 1.10,2013-02-24 08:08:00,
2013-02-24 02:23:00,13.8,12.0,30.04,SW,234,1.0,3.0,92,0.00,,,0.00,weatherlink.com 1.10,2013-02-24 08:23:00,
2013-02-24 02:38:00,13.6,12.0,30.04,SW,220,1.0,2.0,92,0.00,,,0.00,weatherlink.com 1.10,2013-02-24 08:38:00,
2013-02-24 02:53:00,13.5,12.0,30.04,SW,220,1.0,2.0,92,0.00,,,0.00,weatherlink.com 1.10,2013-02-24 08:53:00,
2013-02-24 03:08:00,13.5,12.0,30.04,SW,220,1.0,3.0,92,0.00,,,0.00,weatherlink.com 1.10,2013-02-24 09:08:00,
2013-02-24 03:23:00,13.2,11.0,30.04,SW,220,1.0,3.0,92,0.00,,,0.00,weatherlink.com 1.10,2013-02-24 09:23:00,
2013-02-24 03:38:00,13.1,11.0,30.05,SW,220,1.0,3.0,92,0.00,,,0.00,weatherlink.com 1.10,2013-02-24 09:38:00,
2013-02-24 03:53:00,12.8,11.0,30.05,SW,223,0.0,2.0,92,0.00,,,0.00,weatherlink.com 1.10,2013-02-24 09:53:00,
2013-02-24 04:08:00,12.8,11.0,30.05,SW,223,0.0,2.0,92,0.00,,,0.00,weatherlink.com 1.10,2013-02-24 10:08:00,
2013-02-24 04:23:00,12.8,11.0,30.05,SW,223,2.0,3.0,92,0.00,,,0.00,weatherlink.com 1.10,2013-02-24 10:23:00,
2013-02-24 04:38:00,13.0,11.0,30.06,SW,223,1.0,4.0,92,0.00,,,0.00,weatherlink.com 1.10,2013-02-24 10:38:00,
2013-02-24 04:53:00,12.6,11.0,30.08,SW,233,1.0,3.0,91,0.00,,,0.00,weatherlink.com 1.10,2013-02-24 10:53:00,
2013-02-24 05:08:00,12.3,10.0,30.08,SW,232,0.0,1.0,91,0.00,,,0.00,weatherlink.com 1.10,2013-02-24 11:08:00,
2013-02-24 05:23:00,12.2,10.0,30.07,SW,232,0.0,0.0,91,0.00,,,0.00,weatherlink.com 1.10,2013-02-24 11:23:00,
2013-02-24 05:38:00,12.0,10.0,30.08,SW,232,0.0,1.0,91,0.00,,,0.00,weatherlink.com 1.10,2013-02-24 11:38:00,
2013-02-24 05:53:00,11.8,10.0,30.09,SW,232,0.0,1.0,91,0.00,,,0.00,weatherlink.com 1.10,2013-02-24 11:53:00,
2013-02-24 06:08:00,11.3,9.0,30.10,SW,232,2.0,2.0,91,0.00,,,0.00,weatherlink.com 1.10,2013-02-24 12:08:00,
2013-02-24 06:23:00,11.3,10.0,30.11,SW,232,0.0,3.0,92,0.00,,,0.00,weatherlink.com 1.10,2013-02-24 12:23:00,
2013-02-24 06:39:00,12.0,10.0,30.12,SW,232,0.0,3.0,92,0.00,,,0.00,weatherlink.com 1.10,2013-02-24 12:39:00,
2013-02-24 06:54:00,12.0,10.0,30.11,SW,232,0.0,2.0,92,0.00,,,0.00,weatherlink.com 1.10,2013-02-24 12:54:00,
2013-02-24 07:09:00,12.1,10.0,30.12,SW,232,0.0,1.0,91,0.00,,,0.00,weatherlink.com 1.10,2013-02-24 13:09:00,
2013-02-24 07:24:00,12.6,11.0,30.12,SW,232,1.0,3.0,92,0.00,,,0.00,weatherlink.com 1.10,2013-02-24 13:24:00,
2013-02-24 07:39:00,13.9,12.0,30.12,SW,232,0.0,0.0,93,0.00,,,0.00,weatherlink.com 1.10,2013-02-24 13:39:00,
2013-02-24 07:54:00,15.4,14.0,30.13,SW,230,0.0,1.0,92,0.00,,,0.00,weatherlink.com 1.10,2013-02-24 13:54:00,
2013-02-24 08:09:00,16.8,15.0,30.13,West,269,1.0,2.0,92,0.00,,,0.00,weatherlink.com 1.10,2013-02-24 14:09:00,
2013-02-24 08:24:00,17.7,16.0,30.13,SSW,212,0.0,1.0,91,0.00,,,0.00,weatherlink.com 1.10,2013-02-24 14:24:00,
2013-02-24 08:39:00,18.6,16.0,30.15,SSW,202,2.0,5.0,89,0.00,,,0.00,weatherlink.com 1.10,2013-02-24 14:39:00,
2013-02-24 08:54:00,20.0,17.0,30.15,SSW,202,1.0,4.0,87,0.00,,,0.00,weatherlink.com 1.10,2013-02-24 14:54:00,
2013-02-24 09:09:00,21.2,17.0,30.16,SW,217,2.0,4.0,84,0.00,,,0.00,weatherlink.com 1.10,2013-02-24 15:09:00,
2013-02-24 09:24:00,22.2,18.0,30.16,SW,219,2.0,4.0,83,0.00,,,0.00,weatherlink.com 1.10,2013-02-24 15:24:00,
2013-02-24 09:39:00,22.8,18.0,30.17,SSW,206,1.0,6.0,81,0.00,,,0.00,weatherlink.com 1.10,2013-02-24 15:39:00,
2013-02-24 09:54:00,23.9,19.0,30.17,SW,229,2.0,3.0,80,0.00,,,0.00,weatherlink.com 1.10,2013-02-24 15:54:00,
2013-02-24 10:09:00,25.3,20.0,30.17,WSW,244,0.0,4.0,79,0.00,,,0.00,weatherlink.com 1.10,2013-02-24 16:09:00,
2013-02-24 10:24:00,25.8,20.0,30.17,SSW,202,2.0,5.0,78,0.00,,,0.00,weatherlink.com 1.10,2013-02-24 16:24:00,
2013-02-24 10:39:00,26.1,20.0,30.17,SW,236,1.0,4.0,78,0.00,,,0.00,weatherlink.com 1.10,2013-02-24 16:39:00,
2013-02-24 10:54:00,27.2,21.0,30.17,SSW,205,0.0,5.0,78,0.00,,,0.00,weatherlink.com 1.10,2013-02-24 16:54:00,
2013-02-24 11:09:00,29.0,22.0,30.17,SSW,200,0.0,4.0,76,0.00,,,0.00,weatherlink.com 1.10,2013-02-24 17:09:00,
2013-02-24 11:24:00,30.4,22.0,30.17,WSW,240,0.0,4.0,72,0.00,,,0.00,weatherlink.com 1.10,2013-02-24 17:24:00,
2013-02-24 11:39:00,31.0,23.0,30.17,SW,217,1.0,4.0,71,0.01,,,0.01,weatherlink.com 1.10,2013-02-24 17:39:00,
2013-02-24 11:54:00,32.1,22.0,30.17,WSW,254,4.0,4.0,67,0.01,,,0.01,weatherlink.com 1.10,2013-02-24 17:54:00,
2013-02-24 12:09:00,32.2,23.0,30.17,SW,223,1.0,6.0,69,0.02,,,0.02,weatherlink.com 1.10,2013-02-24 18:09:00,
2013-02-24 12:24:00,32.6,23.0,30.17,SSW,209,3.0,5.0,69,0.02,,,0.02,weatherlink.com 1.10,2013-02-24 18:24:00,
2013-02-24 12:39:00,33.0,24.0,30.16,SW,229,1.0,4.0,69,0.02,,,0.03,weatherlink.com 1.10,2013-02-24 18:39:00,
2013-02-24 12:54:00,33.1,24.0,30.16,WSW,244,3.0,5.0,69,0.02,,,0.03,weatherlink.com 1.10,2013-02-24 18:54:00,
2013-02-24 13:09:00,33.4,23.0,30.16,WSW,250,1.0,4.0,66,0.02,,,0.04,weatherlink.com 1.10,2013-02-24 19:09:00,
2013-02-24 13:24:00,34.4,23.0,30.16,SW,230,3.0,5.0,64,0.03,,,0.05,weatherlink.com 1.10,2013-02-24 19:24:00,
2013-02-24 13:39:00,35.0,23.0,30.16,South,189,2.0,4.0,63,0.03,,,0.06,weatherlink.com 1.10,2013-02-24 19:39:00,
2013-02-24 13:54:00,34.7,23.0,30.16,South,188,1.0,5.0,62,0.04,,,0.07,weatherlink.com 1.10,2013-02-24 19:54:00,
2013-02-24 14:09:00,34.5,23.0,30.15,WSW,248,2.0,5.0,62,0.03,,,0.07,weatherlink.com 1.10,2013-02-24 20:09:00,
2013-02-24 14:24:00,34.8,23.0,30.15,South,190,0.0,4.0,62,0.02,,,0.07,weatherlink.com 1.10,2013-02-24 20:24:00,
2013-02-24 14:39:00,35.2,24.0,30.15,SSE,167,1.0,4.0,63,0.02,,,0.08,weatherlink.com 1.10,2013-02-24 20:39:00,
2013-02-24 14:54:00,35.7,25.0,30.15,SE,124,1.0,2.0,65,0.01,,,0.08,weatherlink.com 1.10,2013-02-24 20:54:00,
2013-02-24 15:09:00,35.6,25.0,30.15,ESE,117,2.0,3.0,65,0.02,,,0.09,weatherlink.com 1.10,2013-02-24 21:09:00,
2013-02-24 15:24:00,35.0,24.0,30.15,SW,229,3.0,5.0,65,0.02,,,0.00,weatherlink.com 1.10,2013-02-24 21:24:00,
2013-02-24 15:39:00,34.3,24.0,30.16,SSW,212,2.0,4.0,67,0.01,,,0.00,weatherlink.com 1.10,2013-02-24 21:39:00,
2013-02-24 16:06:00,33.9,25.0,30.16,SW,223,3.0,3.0,70,0.00,,,0.00,weatherlink.com 1.10,2013-02-24 22:06:00,
2013-02-24 16:53:00,32.6,24.0,30.16,SSW,213,0.0,3.0,72,0.00,,,0.00,weatherlink.com 1.10,2013-02-24 22:53:00,
2013-02-24 17:01:00,32.4,25.0,30.16,SSW,213,0.0,1.0,73,0.00,,,0.00,weatherlink.com 1.10,2013-02-24 23:01:00,
2013-02-24 17:16:00,31.7,25.0,30.16,SSW,213,0.0,1.0,76,0.01,,,0.01,weatherlink.com 1.10,2013-02-24 23:16:00,
2013-02-24 17:31:00,31.1,24.0,30.16,SSW,213,0.0,1.0,76,0.01,,,0.01,weatherlink.com 1.10,2013-02-24 23:31:00,
2013-02-24 17:46:00,30.3,24.0,30.16,SSW,213,0.0,0.0,78,0.01,,,0.01,weatherlink.com 1.10,2013-02-24 23:46:00,
2013-02-24 18:01:00,29.5,24.0,30.16,SSW,213,0.0,0.0,79,0.01,,,0.01,weatherlink.com 1.10,2013-02-25 00:01:00,
2013-02-24 18:16:00,28.5,23.0,30.17,SSW,213,0.0,0.0,81,0.00,,,0.01,weatherlink.com 1.10,2013-02-25 00:16:00,
2013-02-24 18:31:00,27.8,23.0,30.17,SSW,213,0.0,0.0,82,0.00,,,0.01,weatherlink.com 1.10,2013-02-25 00:31:00,
2013-02-24 18:46:00,27.4,23.0,30.18,SSW,213,0.0,0.0,83,0.00,,,0.01,weatherlink.com 1.10,2013-02-25 00:46:00,
2013-02-24 19:04:00,26.6,23.0,30.18,SSW,213,0.0,0.0,85,0.00,,,0.01,weatherlink.com 1.10,2013-02-25 01:04:00,
2013-02-24 19:17:00,26.1,23.0,30.18,SSW,213,0.0,0.0,86,0.00,,,0.01,weatherlink.com 1.10,2013-02-25 01:17:00,
2013-02-24 19:32:00,25.7,23.0,30.18,SSW,213,0.0,0.0,88,0.00,,,0.01,weatherlink.com 1.10,2013-02-25 01:32:00,
2013-02-24 19:47:00,25.5,23.0,30.18,SSW,213,0.0,0.0,89,0.00,,,0.01,weatherlink.com 1.10,2013-02-25 01:47:00,
2013-02-24 20:02:00,24.9,22.0,30.18,SSW,213,0.0,0.0,89,0.00,,,0.01,weatherlink.com 1.10,2013-02-25 02:02:00,
2013-02-24 20:17:00,24.2,22.0,30.18,SSW,213,0.0,0.0,89,0.00,,,0.01,weatherlink.com 1.10,2013-02-25 02:17:00,
2013-02-24 20:32:00,23.8,22.0,30.18,SSW,213,1.0,2.0,91,0.00,,,0.01,weatherlink.com 1.10,2013-02-25 02:32:00,
2013-02-24 20:47:00,23.5,21.0,30.18,SSW,213,0.0,0.0,91,0.00,,,0.01,weatherlink.com 1.10,2013-02-25 02:47:00,
2013-02-24 21:02:00,23.0,21.0,30.19,SSW,213,0.0,0.0,91,0.00,,,0.01,weatherlink.com 1.10,2013-02-25 03:02:00,
2013-02-24 21:17:00,22.7,21.0,30.18,SSW,213,0.0,1.0,92,0.00,,,0.01,weatherlink.com 1.10,2013-02-25 03:17:00,
2013-02-24 21:32:00,22.3,20.0,30.19,SSW,213,0.0,0.0,92,0.00,,,0.01,weatherlink.com 1.10,2013-02-25 03:32:00,
2013-02-24 21:47:00,22.0,20.0,30.19,SSW,213,0.0,1.0,92,0.00,,,0.01,weatherlink.com 1.10,2013-02-25 03:47:00,
2013-02-24 22:02:00,21.5,20.0,30.19,SSW,213,0.0,0.0,92,0.00,,,0.01,weatherlink.com 1.10,2013-02-25 04:02:00,
2013-02-24 22:17:00,20.9,19.0,30.19,SSW,213,0.0,0.0,92,0.00,,,0.01,weatherlink.com 1.10,2013-02-25 04:17:00,
2013-02-24 22:32:00,21.1,20.0,30.18,SSW,213,0.0,0.0,94,0.00,,,0.01,weatherlink.com 1.10,2013-02-25 04:32:00,
2013-02-24 22:47:00,21.6,20.0,30.19,SSW,213,0.0,0.0,94,0.00,,,0.01,weatherlink.com 1.10,2013-02-25 04:47:00,
2013-02-24 23:02:00,21.5,20.0,30.18,SSW,213,0.0,0.0,93,0.00,,,0.01,weatherlink.com 1.10,2013-02-25 05:02:00,
2013-02-24 23:17:00,20.7,19.0,30.18,SSW,213,0.0,0.0,93,0.00,,,0.01,weatherlink.com 1.10,2013-02-25 05:17:00,
2013-02-24 23:32:00,20.1,18.0,30.19,SSW,213,0.0,0.0,92,0.00,,,0.01,weatherlink.com 1.10,2013-02-25 05:32:00,
2013-02-24 23:47:00,19.8,18.0,30.19,SSW,213,0.0,0.0,93,0.00,,,0.01,weatherlink.com 1.10,2013-02-25 05:47:00,